Location: Unspecified
(0.0000°N, 0.0000°E)
Time: 17:29:39
(UTC+00:00)

Amateur Radio Satellites - All Passes

Search period start: 25 October 2014 16:59
Search period end: 26 October 2014 16:59
Location: Unspecified, 0.0000°N, 0.0000°E

Satellite Date Start Highest point End Downlink Frequencies (MHz)
Time Altitude Azimuth
Uosat F 25 Oct 17:01:42 17:05:15 20° 257° (WSW) 17:08:48 435.120 FM
Oscar 10/S400 25 Oct 17:12:30 00:49:33 51° 135° (SE) 03:55:11 145.825 - 145.975 CW/USB, Beacon 145.810 USB
JAS-2 25 Oct 17:21:43 17:27:00 80° 258° (WSW) 17:32:46 435.800 - 435.900 CW/SSB, 435.910 FM
OPAL 25 Oct 17:27:33 17:32:00 34° 284° (WNW) 17:36:29 ?
STRAND 1 25 Oct 17:35:32 17:38:49 17° 103° (ESE) 17:42:06 ?
Hamsat 25 Oct 17:49:06 17:53:11 44° 258° (WSW) 17:57:12 145.90 MHz
Saudisat 1A 25 Oct 18:20:34 18:22:36 13° 247° (WSW) 18:24:37 436.775 MHz
RS-15 25 Oct 18:26:11 18:33:13 18° 114° (ESE) 18:40:01 29.354 - 29.394 USB, Beacon 29.352 USB
SO-67 25 Oct 18:37:20 18:40:45 65° 79° (E) 18:44:08 435.3500 MHz FM
STRAND 1 25 Oct 19:13:24 19:17:44 28° 283° (WNW) 19:22:04 ?
HO-68 25 Oct 20:05:02 20:11:40 41° 75° (ENE) 20:18:15 435.675 MHz FM
AO-40 25 Oct 20:12:08 21:47:31 52° 256° (WSW) 02:43:22 Beacon 2401.320
RS-15 25 Oct 20:34:04 20:45:25 71° 290° (WNW) 20:56:20 29.354 - 29.394 USB, Beacon 29.352 USB
ZACube-1 25 Oct 20:59:41 21:01:50 13° 78° (ENE) 21:03:58 437.345 MHz
UKube-1 25 Oct 21:01:32 21:05:41 45° 78° (ENE) 21:09:50 145.840 MHz, 145.915 MHz
KITSAT 1 25 Oct 21:20:53 21:28:11 38° 70° (ENE) 21:35:28 435.175 FM
ISS 25 Oct 21:35:11 21:38:09 30° 234° (SW) 21:41:07 145.800 FM
FUNcube-1 25 Oct 21:41:50 21:46:19 52° 78° (ENE) 21:50:47 145.950 - 145.970 MHz USB
Oscar 11 25 Oct 21:42:19 21:46:32 48° 258° (WSW) 21:50:42 145.825 FM, Beacon 2401.500 USB
MaSat-1 25 Oct 21:47:21 21:51:49 70° 287° (WNW) 21:56:06 437.345 MHz
HO-68 25 Oct 21:53:55 21:59:01 21° 255° (WSW) 22:04:09 435.675 MHz FM
SO-50 25 Oct 22:23:59 22:28:50 70° 68° (ENE) 22:33:39 436.795 FM
ZACube-1 25 Oct 22:33:56 22:37:56 29° 258° (WSW) 22:41:56 437.345 MHz
KITSAT 1 25 Oct 23:16:45 23:23:14 27° 249° (WSW) 23:29:47 435.175 FM
UOSAT-12 25 Oct 23:43:46 23:47:51 32° 68° (ENE) 23:51:51 437.025 FM, 437.400 FM
Oscar 16 26 Oct 00:39:47 00:44:22 34° 103° (ESE) 00:48:58 437.025 USB, Beacon 2401.1428
PCSat 26 Oct 00:40:09 00:43:37 17° 110° (ESE) 00:47:05 145.825 MHz
JAS-1B 26 Oct 00:46:35 00:54:24 47° 106° (ESE) 01:03:21 435.800 - 435.900 CW/SSB
Uribyol 2 26 Oct 01:02:00 01:05:45 20° 103° (ESE) 01:09:29 436.500 FM
ITAMSAT 1 26 Oct 01:08:04 01:12:02 23° 103° (ESE) 01:16:01 435.822 SSB
UOSAT-12 26 Oct 01:26:08 01:27:42 12° 248° (WSW) 01:29:16 437.025 FM, 437.400 FM
Oscar 19 26 Oct 01:32:36 01:37:34 54° 282° (WNW) 01:42:35 437.125 CW, 437.150 USB
Gurwin Techsat 1B 26 Oct 01:33:41 01:37:31 20° 103° (ESE) 01:41:21 435.225 FM
PANSAT 26 Oct 01:33:59 01:37:48 57° 150° (SSE) 01:41:35 not established
TMSAT-1 26 Oct 01:44:34 01:48:07 18° 103° (ESE) 01:51:40 436.925 FM
AO-27 26 Oct 01:52:40 01:57:52 84° 103° (ESE) 02:03:05 436.795 MHz FM
Sapphire 26 Oct 01:59:03 02:04:22 63° 289° (WNW) 02:09:41 437.095 MHz 1200 baud AX-25 AFSK
AO-Echo 26 Oct 02:05:54 02:10:57 48° 282° (WNW) 02:15:56 ?
Oscar 16 26 Oct 02:20:50 02:23:27 14° 283° (WNW) 02:26:05 437.025 USB, Beacon 2401.1428
PCSat 26 Oct 02:22:04 02:26:46 31° 289° (WNW) 02:31:28 145.825 MHz
JAS-1B 26 Oct 02:38:20 02:44:40 26° 281° (W) 02:51:48 435.800 - 435.900 CW/SSB
Uribyol 2 26 Oct 02:40:50 02:44:57 24° 283° (WNW) 02:49:04 436.500 FM
ITAMSAT 1 26 Oct 02:47:18 02:51:15 22° 283° (WNW) 02:55:13 435.822 SSB
AO-7 26 Oct 02:49:08 02:55:23 24° 107° (ESE) 03:01:38 29.400 - 29.500 MHz
Gurwin Techsat 1B 26 Oct 03:12:53 03:17:12 26° 283° (WNW) 03:21:32 435.225 FM
PANSAT 26 Oct 03:15:04 03:17:54 19° 331° (NNW) 03:20:43 not established
TMSAT-1 26 Oct 03:23:18 03:27:45 28° 283° (WNW) 03:32:14 436.925 FM
Uosat F 26 Oct 03:51:32 03:56:27 56° 103° (ESE) 04:01:22 435.120 FM
OPAL 26 Oct 04:20:37 04:25:17 34° 76° (ENE) 04:29:55 ?
AO-7 26 Oct 04:39:57 04:47:46 46° 286° (WNW) 04:55:40 29.400 - 29.500 MHz
Saudisat 1A 26 Oct 04:45:11 04:49:19 42° 112° (ESE) 04:53:26 436.775 MHz
JAS-2 26 Oct 04:53:28 05:01:04 61° 102° (ESE) 05:08:04 435.800 - 435.900 CW/SSB, 435.910 FM
Hamsat 26 Oct 05:56:16 06:00:07 34° 281° (W) 06:04:01 145.90 MHz
OPAL 26 Oct 06:00:58 06:03:52 15° 255° (WSW) 06:06:45 ?
STRAND 1 26 Oct 06:06:44 06:11:34 43° 77° (ENE) 06:16:23 ?
RS-15 26 Oct 06:08:42 06:14:17 15° 68° (ENE) 06:19:55 29.354 - 29.394 USB, Beacon 29.352 USB
SO-67 26 Oct 06:21:41 06:24:48 32° 101° (E) 06:27:55 435.3500 MHz FM
JAS-2 26 Oct 06:41:16 06:45:30 16° 285° (WNW) 06:49:37 435.800 - 435.900 CW/SSB, 435.910 FM
STRAND 1 26 Oct 07:49:22 07:50:28 11° 257° (WSW) 07:51:33 ?
HO-68 26 Oct 07:56:52 08:03:13 35° 105° (ESE) 08:09:34 435.675 MHz FM
RS-15 26 Oct 08:14:42 08:26:22 84° 250° (WSW) 08:38:35 29.354 - 29.394 USB, Beacon 29.352 USB
ZACube-1 26 Oct 09:09:58 09:12:29 16° 102° (ESE) 09:15:00 437.345 MHz
ISS 26 Oct 09:10:24 09:13:37 49° 305° (NW) 09:16:49 145.800 FM
UKube-1 26 Oct 09:11:00 09:15:18 63° 102° (ESE) 09:19:36 145.840 MHz, 145.915 MHz
KITSAT 1 26 Oct 09:28:31 09:36:16 49° 110° (ESE) 09:43:57 435.175 FM
MaSat-1 26 Oct 09:29:46 09:32:04 65° 73° (ENE) 09:34:30 437.345 MHz
HO-68 26 Oct 09:44:55 09:50:35 26° 285° (WNW) 09:56:17 435.675 MHz FM
Oscar 11 26 Oct 09:51:38 09:55:33 35° 282° (WNW) 09:59:31 145.825 FM, Beacon 2401.500 USB
FUNcube-1 26 Oct 09:52:43 09:56:50 71° 102° (ESE) 10:00:58 145.950 - 145.970 MHz USB
RS-15 26 Oct 10:35:58 10:38:59 11° 245° (WSW) 10:42:02 29.354 - 29.394 USB, Beacon 29.352 USB
SO-50 26 Oct 10:37:40 10:42:00 61° 292° (WNW) 10:46:21 436.795 FM
ZACube-1 26 Oct 10:45:44 10:48:37 19° 282° (WNW) 10:51:31 437.345 MHz
KITSAT 1 26 Oct 11:25:45 11:31:20 21° 291° (WNW) 11:36:57 435.175 FM
UOSAT-12 26 Oct 11:53:24 11:57:47 56° 112° (ESE) 12:02:15 437.025 FM, 437.400 FM
Oscar 19 26 Oct 12:28:19 12:32:25 24° 78° (ENE) 12:36:29 437.125 CW, 437.150 USB
AO-27 26 Oct 12:51:23 12:53:55 14° 77° (ENE) 12:56:26 436.795 MHz FM
Sapphire 26 Oct 12:53:06 12:57:35 27° 71° (ENE) 13:02:04 437.095 MHz 1200 baud AX-25 AFSK
AO-Echo 26 Oct 12:57:51 13:01:26 21° 77° (ENE) 13:05:03 ?
JAS-1B 26 Oct 13:00:04 13:06:53 51° 78° (ENE) 13:12:43 435.800 - 435.900 CW/SSB
Oscar 16 26 Oct 13:13:10 13:18:23 90° 75° (ENE) 13:23:33 437.025 USB, Beacon 2401.1428
PCSat 26 Oct 13:14:40 13:19:55 54° 71° (ENE) 13:25:10 145.825 MHz
PANSAT 26 Oct 13:21:12 13:24:59 60° 30° (NNE) 13:28:47 not established
Uribyol 2 26 Oct 13:35:37 13:40:42 55° 77° (ENE) 13:45:47 436.500 FM
ITAMSAT 1 26 Oct 13:42:02 13:47:09 60° 77° (ENE) 13:52:15 435.822 SSB
Oscar 19 26 Oct 14:07:40 14:11:28 21° 257° (WSW) 14:15:17 437.125 CW, 437.150 USB
Gurwin Techsat 1B 26 Oct 14:10:54 14:16:07 59° 78° (ENE) 14:21:19 435.225 FM
TMSAT-1 26 Oct 14:21:10 14:26:19 53° 78° (ENE) 14:31:27 436.925 FM
AO-27 26 Oct 14:28:25 14:33:09 36° 257° (WSW) 14:37:52 436.795 MHz FM
AO-Echo 26 Oct 14:36:37 14:39:57 19° 258° (WSW) 14:43:19 ?
Sapphire 26 Oct 14:36:52 14:40:44 20° 250° (WSW) 14:44:36 437.095 MHz 1200 baud AX-25 AFSK
JAS-1B 26 Oct 14:53:50 14:56:50 13° 252° (WSW) 14:59:41 435.800 - 435.900 CW/SSB
PANSAT 26 Oct 15:02:20 15:05:06 19° 209° (SSW) 15:07:52 not established
AO-7 26 Oct 15:14:18 15:21:51 39° 74° (ENE) 15:29:19 29.400 - 29.500 MHz
Uosat F 26 Oct 16:21:17 16:26:13 61° 257° (WSW) 16:31:09 435.120 FM
JAS-2 26 Oct 16:27:53 16:32:12 25° 75° (ENE) 16:36:48 435.800 - 435.900 CW/SSB, 435.910 FM
Hamsat 26 Oct 16:30:23 16:31:46 11° 79° (ENE) 16:33:08 145.90 MHz
